Ingonish Beach, Nova Scotia

7:26 PM ADT on April 25, 2018 (GMT -0300)
Ingonish Beach

Weather History for CXIB - November, 2012

Change the Weather History Date:

Tuesday, November 6, 2012

  Actual Average Record
Temperature  
Mean Temperature 36 °F -  
Max Temperature 41 °F - - ()
Min Temperature 30 °F - - ()
Degree Days  
Heating Degree Days 29    
Moisture  
Dew Point 31 °F    
Average Humidity 78    
Maximum Humidity 98    
Minimum Humidity 47    
Precipitation  
Precipitation 0.28 in - - ()
Sea Level Pressure  
Sea Level Pressure 29.94 in    
Wind  
Wind Speed 3 mph ()    
Max Wind Speed 10 mph    
Max Gust Speed 20 mph    
T = Trace of Precipitation, MM = Missing Value Source: Averaged Metar Reports

Daily Weather History Graph

Daily Weather History Graph

Search for Another Location

Airport or City:

Astronomy

Nov. 06, 2012 Rise Set
Actual Time 6:51 AM AST 4:38 PM AST
Civil Twilight 6:19 AM AST 5:10 PM AST
Nautical Twilight 5:43 AM AST 5:46 PM AST
Astronomical Twilight 5:07 AM AST 6:21 PM AST
Moon 11:16 PM AST (11/6) 12:38 PM AST (11/6)
Length of Visible Light 10h 51m
Length of Day
9h 46m
Waning Gibbous, 54% of the Moon is Illuminated
Nov 6
Waning Gibbous
Nov 6
Last Quarter
Nov 13
New
Nov 20
First Quarter
Nov 28
Full

Hourly Weather History & Observations

Time (AST) Temp. Windchill Dew Point Humidity Pressure Visibility Wind Dir Wind Speed Gust Speed Precip Events Conditions
12:00 AM 40.8 °F - 40.3 °F 98% 29.86 in - WSW 2.3 mph - N/A   Unknown
1:00 AM 41.0 °F - 40.3 °F 97% 29.84 in - NNW 2.3 mph - 0.05 in   Unknown
2:00 AM 40 °F - 39 °F 96% 29.83 in - WNW 2.3 mph - -  
2:00 AM 40.3 °F - 39.2 °F 96% 29.83 in - WNW 2.3 mph - 0.09 in   Unknown
3:00 AM 39.0 °F - 38.3 °F 97% 29.80 in - SSW 1.2 mph - 0.08 in   Unknown
4:00 AM 38.5 °F - 37.9 °F 98% 29.78 in - SW 1.2 mph - 0.09 in   Unknown
5:00 AM 38.7 °F 36.3 °F 38.1 °F 98% 29.78 in - WSW 3.5 mph - 0.08 in   Unknown
6:00 AM 38.5 °F - 37.8 °F 97% 29.76 in - SW 1.2 mph - N/A   Unknown
7:00 AM 39.6 °F 36.3 °F 37.0 °F 91% 29.78 in - WNW 4.6 mph - 0.03 in   Unknown
8:00 AM 40 °F - 37 °F 84% 29.80 in - WNW 4.6 mph - -  
8:00 AM 39.7 °F 36.5 °F 36.9 °F 89% 29.80 in - WNW 4.6 mph - N/A   Unknown
9:00 AM 39.7 °F 35.6 °F 36.0 °F 86% 29.82 in - WNW 5.8 mph - N/A   Unknown
10:00 AM 40.5 °F 35.1 °F 34.3 °F 79% 29.85 in - West 8.1 mph 19.6 mph N/A   Unknown
11:00 AM 40.5 °F 34.6 °F 31.5 °F 70% 29.88 in - West 9.2 mph 19.6 mph 0.03 in   Unknown
12:00 PM 39.4 °F 33.2 °F 28.4 °F 65% 29.92 in - West 9.2 mph 18.4 mph N/A   Unknown
1:00 PM 38.3 °F 31.4 °F 24.8 °F 58% 29.96 in - West 10.4 mph 18.4 mph N/A   Unknown
2:00 PM 37 °F - 24 °F 47% 29.99 in - West 6.9 mph - -  
2:00 PM 37.2 °F 31.9 °F 24.1 °F 59% 29.99 in - West 6.9 mph - N/A   Unknown
3:00 PM 36.3 °F 30.8 °F 23.5 °F 60% 30.01 in - West 6.9 mph - N/A   Unknown
4:00 PM 35.8 °F 31.9 °F 23.7 °F 62% 30.04 in - West 4.6 mph - N/A   Unknown
5:00 PM 35.4 °F - 23.9 °F 63% 30.07 in - WSW 2.3 mph - N/A   Unknown
6:00 PM 35.1 °F 32.2 °F 23.9 °F 64% 30.10 in - SW 3.5 mph - N/A   Unknown
7:00 PM 33.6 °F 30.6 °F 22.3 °F 63% 30.12 in - SW 3.5 mph - N/A   Unknown
8:00 PM 33 °F - 24 °F 59% 30.14 in - WSW 1.2 mph - -  
8:00 PM 31.5 °F - 23.9 °F 74% 30.14 in - WSW 1.2 mph - N/A   Unknown
9:00 PM 31.1 °F - 24.3 °F 76% 30.15 in - SW 1.2 mph - N/A   Unknown
10:00 PM 31.1 °F - 24.3 °F 76% 30.16 in - SW 1.2 mph - N/A   Unknown
11:00 PM 30.6 °F - 24.1 °F 77% 30.17 in - SSW 1.2 mph - N/A   Unknown